Tracking 35019 objects as of 13-Aug-2026
HD Live streaming from Space Station
objects crossing your sky now

STARLINK-3608

Track STARLINK-3608 now!
10-day predictions
STARLINK-3608 is classified as:


NORAD ID: 51776
Int'l Code: 2022-017J
Launch date: February 25, 2022
Source: United States (US)
Launch site: AIR FORCE WESTERN TEST RANGE (AFWTR)
Your satellite tracking list
Your tracking list is empty




NASA's NSSDC Master Catalog

Two Line Element Set (TLE):
1 51776U 22017J   26224.65006558  .00003017  00000-0  97339-4 0  9995
2 51776  53.1621 353.6213 0000501  81.1715 278.9345 15.35400074246186
Source of the keplerian elements: AFSPC